JA1CAY-13 Weather Reports


time (UTC)temp
C
wind
direction
speed
KPH
gust
KPH
rain 1hr
cm
rain 24hr
cm
rain mn
cm
humidity
%
barometer
mb
20260509185727 8 309 0.0 3.2 0.00 0.00 0.00 75 1018.8
20260509184826 8 302 1.6 6.4 0.00 0.00 0.00 75 1018.6
20260509183926 8 308 3.2 6.4 0.00 0.00 0.00 75 1018.6
20260509183026 8 298 1.6 4.8 0.00 0.00 0.00 76 1018.6
20260509181226 8 0 0.0 0.0 0.00 0.00 0.00 73 1018.3
20260509180326 8 310 0.0 1.6 0.00 0.00 0.00 73 1018.2
20260509175427 8 300 1.6 4.8 0.00 0.00 0.00 73 1018.0
20260509174527 9 300 1.6 6.4 0.00 0.00 0.00 73 1017.8
20260509173626 9 0 0.0 0.0 0.00 0.00 0.00 71 1017.8
20260509172726 9 0 0.0 0.0 0.00 0.00 0.00 70 1017.7
20260509171826 9 0 0.0 0.0 0.00 0.00 0.00 69 1017.7
20260509170926 10 309 1.6 4.8 0.00 0.00 0.00 69 1017.6
20260509170026 10 305 3.2 6.4 0.00 0.00 0.00 68 1017.5
20260509165127 10 300 1.6 6.4 0.00 0.00 0.00 69 1017.5
20260509164226 10 293 0.0 3.2 0.00 0.00 0.00 67 1017.4
20260509155726 11 310 1.6 6.4 0.00 0.00 0.00 64 1017.2
20260509153026 11 318 1.6 4.8 0.00 0.00 0.00 61 1017.2
20260509152126 11 312 0.0 4.8 0.00 0.00 0.00 61 1017.2
20260509150326 11 319 1.6 4.8 0.00 0.00 0.00 59 1017.1
20260509145426 12 317 1.6 6.4 0.00 0.00 0.00 58 1017.1
20260509144526 12 337 1.6 6.4 0.00 0.00 0.00 57 1016.8
20260509143627 12 298 1.6 4.8 0.00 0.00 0.00 56 1016.7
20260509142727 12 295 0.0 4.8 0.00 0.00 0.00 55 1016.6
20260509141826 12 308 1.6 8.0 0.00 0.00 0.00 54 1016.5
20260509140026 13 304 3.2 11.3 0.00 0.00 0.00 52 1016.3
20260509135126 13 312 1.6 6.4 0.00 0.00 0.00 51 1016.2
20260509134226 13 294 3.2 8.0 0.00 0.00 0.00 50 1016.1
20260509133326 13 296 6.4 11.3 0.00 0.00 0.00 50 1016.1
20260509132426 13 302 6.4 11.3 0.00 0.00 0.00 48 1015.9
20260509131526 14 296 4.8 11.3 0.00 0.00 0.00 47 1015.8
20260509130626 14 297 6.4 11.3 0.00 0.00 0.00 46 1015.8
20260509125726 14 291 6.4 11.3 0.00 0.00 0.00 46 1015.8
20260509124826 15 305 6.4 11.3 0.00 0.00 0.00 46 1015.7
20260509123927 15 325 6.4 12.9 0.00 0.00 0.00 45 1015.6
20260509123026 15 308 8.0 12.9 0.00 0.00 0.00 45 1015.5
20260509121226 15 311 4.8 12.9 0.00 0.00 0.00 43 1015.4
20260509120325 15 322 6.4 12.9 0.00 0.00 0.00 43 1015.4
20260509115426 16 303 6.4 12.9 0.00 0.00 0.00 44 1015.2
20260509114526 16 324 4.8 11.3 0.00 0.00 0.00 42 1015.2
20260509113626 16 322 8.0 16.1 0.00 0.00 0.00 38 1015.2
20260509112727 17 306 8.0 14.5 0.00 0.00 0.00 39 1015.1
20260509111826 17 312 4.8 11.3 0.00 0.00 0.00 36 1014.9
20260509110926 18 306 4.8 16.1 0.00 0.00 0.00 34 1014.8
20260509105126 18 281 9.7 17.7 0.00 0.00 0.00 31 1014.4
20260509104226 18 279 8.0 19.3 0.00 0.00 0.00 39 1014.3
20260509101526 19 233 6.4 17.7 0.00 0.00 0.00 47 1013.6
20260509100626 19 239 6.4 19.3 0.00 0.00 0.00 46 1013.4
20260509095726 19 247 4.8 12.9 0.00 0.00 0.00 41 1013.1
20260509094827 20 253 3.2 11.3 0.00 0.00 0.00 40 1012.8
20260509093926 20 270 4.8 14.5 0.00 0.00 0.00 39 1012.8
20260509093026 20 250 4.8 14.5 0.00 0.00 0.00 38 1012.6
20260509092126 21 266 4.8 14.5 0.00 0.00 0.00 28 1012.4
20260509090326 21 320 11.3 22.5 0.00 0.00 0.00 25 1011.8
20260509081826 22 335 12.9 24.1 0.00 0.00 0.00 25 1010.7
20260509080927 22 340 11.3 24.1 0.00 0.00 0.00 25 1010.5
20260509075127 23 341 12.9 25.7 0.00 0.00 0.00 24 1010.4
20260509074226 23 335 17.7 30.6 0.00 0.00 0.00 24 1010.2
20260509073326 23 330 14.5 25.7 0.00 0.00 0.00 25 1010.2
20260509072426 23 322 16.1 33.8 0.00 0.00 0.00 24 1010.0
20260509071526 23 322 16.1 33.8 0.00 0.00 0.00 24 1009.9
20260509070627 24 341 16.1 30.6 0.00 0.00 0.00 23 1009.7
20260509064827 24 330 16.1 37.0 0.00 0.00 0.00 24 1009.6
20260509063027 25 354 16.1 35.4 0.00 0.00 0.00 21 1009.4
20260509060326 25 359 19.3 35.4 0.00 0.00 0.00 22 1009.5
20260509054526 25 2 20.9 41.8 0.00 0.00 0.00 21 1009.3
20260509053627 25 355 20.9 33.8 0.00 0.00 0.00 21 1009.4
20260509052727 25 350 19.3 35.4 0.00 0.00 0.00 20 1009.2
20260509051827 25 345 17.7 33.8 0.00 0.00 0.00 22 1009.4
20260509050926 25 354 20.9 37.0 0.00 0.00 0.00 22 1009.4
20260509050026 25 343 19.3 38.6 0.00 0.00 0.00 21 1009.1
20260509045126 25 342 20.9 40.2 0.00 0.00 0.00 21 1009.3
20260509044226 25 344 19.3 35.4 0.00 0.00 0.00 21 1009.5
20260509043326 25 341 22.5 45.1 0.00 0.00 0.00 21 1009.6
20260509042426 25 341 24.1 43.5 0.00 0.00 0.00 21 1009.6
20260509041526 25 3 20.9 40.2 0.00 0.00 0.00 22 1009.5
20260509040626 25 5 20.9 40.2 0.00 0.00 0.00 22 1009.4
20260509035726 25 358 20.9 35.4 0.00 0.00 0.00 20 1009.4
20260509034826 25 357 19.3 32.2 0.00 0.00 0.00 23 1009.5
20260509033926 25 4 19.3 33.8 0.00 0.00 0.00 22 1009.5
20260509033027 25 354 22.5 41.8 0.00 0.00 0.00 23 1009.5
20260509032126 25 358 22.5 37.0 0.00 0.00 0.00 24 1009.6
20260509031226 24 354 22.5 38.6 0.00 0.00 0.00 24 1009.4
20260509030326 24 1 17.7 33.8 0.00 0.00 0.00 27 1009.5
20260509025426 24 353 19.3 38.6 0.00 0.00 0.00 28 1009.5
20260509024526 24 357 19.3 41.8 0.00 0.00 0.00 28 1009.9
20260509022727 24 334 17.7 29.0 0.00 0.00 0.00 28 1010.2
20260509021826 24 333 14.5 25.7 0.00 0.00 0.00 30 1010.2
20260509020926 23 330 16.1 32.2 0.00 0.00 0.00 31 1010.4
20260509020026 23 314 14.5 29.0 0.00 0.00 0.00 31 1010.3
20260509014226 23 1 11.3 27.4 0.00 0.00 0.00 32 1010.4
20260509012426 22 347 14.5 29.0 0.00 0.00 0.00 32 1010.7
20260509011526 22 345 14.5 30.6 0.00 0.00 0.00 33 1010.7
20260509010626 22 2 12.9 29.0 0.00 0.00 0.00 33 1010.7
20260509005727 22 343 11.3 29.0 0.00 0.00 0.00 34 1010.6
20260509004826 22 356 11.3 29.0 0.00 0.00 0.00 34 1010.6
20260509003925 21 334 12.9 30.6 0.00 0.00 0.00 35 1010.3
20260509002126 21 318 19.3 33.8 0.00 0.00 0.00 34 1010.0
20260509001226 21 318 20.9 35.4 0.00 0.00 0.00 34 1009.9
20260508234526 20 324 17.7 37.0 0.00 0.00 0.00 35 1009.5
20260508233626 20 342 14.5 33.8 0.00 0.00 0.00 36 1009.5
20260508232726 20 344 16.1 27.4 0.00 0.00 0.00 35 1009.4
20260508231826 20 336 14.5 30.6 0.00 0.00 0.00 36 1009.2
20260508230926 19 347 17.7 30.6 0.00 0.00 0.00 37 1009.2
20260508230026 19 349 17.7 30.6 0.00 0.00 0.00 37 1009.0
20260508225126 18 341 16.1 35.4 0.00 0.00 0.00 37 1008.8
20260508224226 18 348 12.9 32.2 0.00 0.00 0.00 36 1008.7
20260508223326 18 345 12.9 30.6 0.00 0.00 0.00 38 1008.6
20260508215726 16 354 3.2 17.7 0.00 0.00 0.00 40 1008.4
20260508214826 16 267 4.8 16.1 0.00 0.00 0.00 38 1008.1
20260508213927 16 314 4.8 20.9 0.00 0.00 0.00 39 1008.2
20260508213026 16 89 4.8 14.5 0.00 0.00 0.00 37 1008.1
20260508210327 15 219 4.8 19.3 0.00 0.00 0.00 39 1007.4
20260508205425 15 345 3.2 8.0 0.00 0.00 0.00 42 1007.6
20260508203627 15 67 8.0 19.3 0.00 0.00 0.00 38 1007.1
20260508202727 15 331 3.2 11.3 0.00 0.00 0.00 38 1007.1
20260508201826 15 233 3.2 11.3 0.00 0.00 0.00 37 1006.9
20260508200026 15 31 4.8 14.5 0.00 0.00 0.00 37 1006.4
20260508195126 15 351 8.0 24.1 0.00 0.00 0.00 37 1006.4
20260508194226 15 4 11.3 24.1 0.00 0.00 0.00 37 1006.2
20260508193326 15 358 9.7 24.1 0.00 0.00 0.00 36 1005.9
20260508192426 15 355 11.3 24.1 0.00 0.00 0.00 36 1005.9
20260508191526 15 348 9.7 24.1 0.00 0.00 0.00 36 1005.8